Location: Unspecified
(0.0000°N, 0.0000°E)
Time: 02:08:40
(UTC+00:00)

Vanguard 1 Rocket - Pass Details

Date: 27 March 2018
Orbit: 652 x 4225 km, 34.3° (Epoch: 18 July)

Event Time Altitude Azimuth Distance (km) Brightness Sun altitude
Rises 00:47:42 0° 282° (WNW) 6,751 - -79.2°
Reaches altitude 10° 00:52:02 10° 275° (W) 6,144 - -78.1°
Maximum altitude 01:12:03 43° 210° (SSW) 5,084 - -73.2°
Exits shadow 01:24:56 29° 164° (SSE) 5,881 11.3 -70.0°
Drops below altitude 10° 01:35:53 10° 144° (SE) 7,053 12.0 -67.3°
Sets 01:41:35 0° 137° (SE) 7,755 12.3 -65.9°
